Regional Weather Roundup
Issued by NWS

Home | Current Version | Previous Version | Text Only | Print | Product List | Glossary Off
Versions: 1 2 3 4 5 6 7 8 9 10 11 12 13 14 15 16 17 18 19 20 21 22 23 24 25 26 27 28 29 30 31 32 33 34 35 36 37 38 39 40 41 42 43 44 45 46 47 48 49 50

000
ASUS45 KSLC 200110
RWRUT

UTAH REGIONAL WEATHER ROUNDUP
NATIONAL WEATHER SERVICE SALT LAKE CITY UT
700 PM MDT SAT MAY 19 2018

UTZ001>011-023>025-200200-

NORTHERN UTAH

CITY           SKY/WX    TMP DP  RH WIND       PRES   REMARKS
BRIGHAM CITY   MOSUNNY   73  36  26 NW7       29.93S
HILL AFB       MOSUNNY   70  40  33 N5        29.94S
LOGAN          MOSUNNY   67  47  48 N10       29.94S
OGDEN          SUNNY     72  38  29 NW7       29.92F
SALT LAKE CITY MOSUNNY   76  38  25 W8        29.90F
TOOELE VALLEY  SUNNY     70  37  30 N8        29.93S
WENDOVER       PTSUNNY   74  31  20 S7        29.92S
HEBER CITY       N/A     66  37  34 N10       29.96F
WEST JORDAN    MOSUNNY   71  41  33 NW5       29.94S

$$

UTZ011>015-024>027-200200-

CENTRAL/NORTHEAST UTAH

CITY           SKY/WX    TMP DP  RH WIND       PRES   REMARKS
PROVO AIRPORT  NOT AVBL
MOAB/CANYONLAN SUNNY     79  25  13 W8        29.84S
DELTA          PTSUNNY   73  28  19 CALM      29.91S
PRICE          MOSUNNY   68  37  32 NE16      29.95R
RICHFIELD      MOSUNNY   68  37  32 S15       29.94R
ROOSEVELT      MOSUNNY   68  36  30 N13       29.99S
VERNAL         MOSUNNY   69  37  30 NW9       29.97F

$$

UTZ013>016-019>022-027-200200-

SOUTHERN UTAH

CITY           SKY/WX    TMP DP  RH WIND       PRES   REMARKS
BRYCE CANYON   LGT RAIN  53  42  66 W12       30.06R
CEDAR CITY     PTSUNNY   68  39  34 NE16      29.95S
MILFORD        PTSUNNY   66  43  43 E16G24    29.93F
ST GEORGE      PTCLDY    87  26  11 W15       29.74S
HANKSVILLE     PTSUNNY   77  32  19 W14       29.88S
KANAB          SUNNY     81  23  12 SW17      29.90S
BLANDING         N/A     75  24  15 N6        30.00S

$$

REGIONAL REPORTS     COLORADO/ARIZONA

CITY           SKY/WX    TMP DP  RH WIND       PRES   REMARKS
CRAIG, CO      LGT RAIN  50  46  86 E15       30.08S
GRAND JUNCTION SUNNY     73  33  23 N8        29.90F
RIFLE, CO      PTSUNNY   65  43  44 NE5       30.00S
MONTROSE, CO   MOSUNNY   70  29  21 NW5       29.97F
CORTEZ, CO       N/A     75  13   9 NW16G22   29.94S
COLORADO CITY    N/A     81  28  15 NE8       29.89F
PAGE, AZ       MOSUNNY   84  26  12 N8        29.81F
GRAND CANYON   PTSUNNY   73  15  11 W14       29.98F
KINGMAN, AZ    SUNNY     84  27  12 SW22G28   29.82S
FLAGSTAFF, AZ  PTSUNNY   67  19  16 SW15      30.02S

$$

REGIONAL REPORTS    NEVADA/IDAHO/WYOMING

CITY           SKY/WX    TMP DP  RH WIND       PRES   REMARKS
LAS VEGAS, NV  PTSUNNY   90  32  12 W9        29.70R
ELY, NY        CLOUDY    54  40  59 SE24G32   30.05R
ELKO, NV       MOSUNNY   70  38  31 S6        29.92R
POCATELLO, ID  MOSUNNY   68  44  42 SE9       29.96S
BURLEY, ID     SUNNY     75  32  20 CALM      29.90S
FORT BRIDGER,  CLOUDY    59  36  42 E12       30.12S
EVANSTON, WY   CLOUDY    57  40  52 E10       30.07F
ROCK SPRINGS,  PTSUNNY   52  38  58 NE21G30   30.12R
KEMMERER, WY   SUNNY     55  36  47 E7        30.12S

$$



USA.gov is the U.S. government's official web portal to all federal, state and local government web resources and services.